Temperature
0 0 0 0 0 0 0 -0 -0 -1 -0 1 1 1 1 1 1 1 1 2 2 2 2 2 2 3 3 3 3 3 3 3 3 3 3 3 3 3
-0 -0 -0 -0 -0 -0 -0 -0 -1 -1 -1 -0 0 1 0 0 0 1 1 1 1 1 1 2 1 2 2 2 2 2 3 3 3 3 3 3 3 3
-1 -1 -1 -1 -1 -1 -1 -1 -1 -1 -1 -1 -0 -0 -0 -0 -0 0 0 0 1 1 1 1 1 1 1 1 1 2 2 2 2 2 2 2 2 2
-2 -2 -1 -1 -1 -1 -1 -1 -1 -1 -2 -1 -1 -1 -1 -1 -1 -1 -0 -0 -0 -0 -0 0 0 0 0 1 1 1 1 1 1 1 1 1 1 1
-2 -2 -2 -2 -2 -2 -2 -2 -2 -2 -2 -2 -2 -2 -2 -1 -1 -1 -1 -1 -1 -1 -1 -1 -1 -0 -0 -0 0 0 0 1 1 1 1 1 1 1
-3 -3 -3 -3 -3 -3 -3 -2 -3 -3 -3 -3 -3 -2 -2 -2 -2 -2 -2 -2 -1 -1 -1 -1 -1 -1 -1 -1 -0 -0 -0 -0 -0 0 0 0 0 0
-4 -4 -4 -4 -4 -3 -3 -3 -3 -3 -3 -3 -3 -3 -3 -3 -3 -3 -3 -2 -2 -2 -2 -2 -2 -2 -1 -1 -1 -1 -1 -1 -1 -1 -1 -1 -1 -1
-5 -4 -4 -4 -4 -4 -4 -4 -4 -4 -4 -4 -4 -4 -4 -4 -4 -4 -4 -3 -3 -3 -3 -3 -3 -2 -2 -2 -2 -2 -2 -1 -1 -1 -1 -1 -1 -1
-5 -5 -5 -5 -5 -5 -5 -5 -5 -5 -5 -5 -5 -4 -4 -4 -4 -4 -4 -4 -4 -4 -4 -3 -3 -3 -3 -2 -2 -2 -2 -2 -2 -2 -2 -2 -2 -2
-6 -6 -6 -6 -5 -6 -5 -5 -5 -5 -5 -5 -5 -5 -5 -5 -5 -5 -5 -5 -4 -4 -4 -4 -4 -4 -3 -3 -3 -3 -3 -3 -3 -3 -3 -3 -3 -3
-7 -7 -7 -6 -6 -6 -6 -6 -6 -6 -6 -6 -6 -6 -6 -6 -6 -6 -6 -6 -5 -5 -5 -5 -5 -4 -4 -4 -3 -3 -3 -3 -4 -3 -3 -3 -3 -3
-7 -7 -7 -7 -7 -7 -7 -7 -7 -6 -6 -6 -6 -6 -6 -6 -6 -6 -6 -6 -6 -6 -6 -6 -6 -6 -6 -5 -4 -4 -4 -4 -4 -4 -4 -4 -4 -4
-8 -8 -8 -8 -8 -8 -8 -8 -8 -7 -7 -7 -7 -7 -7 -6 -6 -6 -6 -7 -7 -7 -7 -7 -7 -7 -7 -6 -5 -5 -5 -5 -5 -5 -5 -4 -5 -5
-9 -9 -9 -9 -9 -8 -8 -8 -8 -8 -8 -8 -8 -7 -7 -7 -7 -7 -7 -7 -7 -7 -7 -7 -7 -7 -8 -8 -7 -6 -6 -6 -6 -5 -5 -5 -5 -5
-10 -10 -10 -9 -9 -9 -9 -9 -9 -9 -9 -9 -8 -8 -8 -8 -8 -8 -8 -8 -7 -7 -8 -8 -8 -8 -8 -8 -8 -8 -7 -7 -6 -6 -6 -6 -6 -6
-11 -11 -11 -10 -10 -10 -10 -10 -10 -10 -10 -10 -9 -9 -9 -9 -8 -8 -8 -8 -8 -8 -8 -8 -8 -9 -9 -9 -9 -8 -8 -8 -8 -7 -7 -7 -7 -7
-11 -11 -11 -11 -11 -11 -11 -11 -11 -11 -10 -10 -10 -10 -10 -9 -9 -9 -9 -9 -9 -9 -9 -9 -9 -9 -9 -9 -9 -9 -9 -9 -8 -8 -8 -8 -7 -7
-12 -12 -12 -12 -12 -12 -11 -11 -11 -11 -11 -11 -11 -11 -11 -10 -10 -10 -10 -10 -10 -10 -10 -10 -10 -10 -10 -10 -9 -9 -9 -9 -9 -9 -9 -9 -8 -8
-12 -12 -12 -12 -12 -12 -12 -12 -12 -12 -12 -12 -11 -11 -11 -11 -11 -11 -11 -11 -10 -10 -10 -10 -10 -11 -11 -11 -10 -10 -10 -10 -10 -10 -10 -9 -9 -8
-13 -13 -13 -13 -13 -13 -13 -13 -12 -12 -12 -12 -12 -12 -12 -12 -12 -12 -11 -11 -11 -11 -11 -11 -11 -11 -12 -12 -11 -10 -10 -11 -11 -11 -10 -10 -10 -9
-13 -13 -13 -13 -13 -13 -13 -13 -13 -13 -13 -13 -13 -13 -13 -13 -12 -12 -12 -12 -12 -12 -12 -11 -11 -12 -12 -12 -12 -11 -11 -11 -11 -11 -11 -11 -10 -10
-14 -14 -14 -14 -14 -14 -14 -14 -13 -13 -13 -13 -13 -13 -13 -13 -13 -13 -13 -12 -12 -12 -12 -12 -12 -12 -12 -12 -13 -12 -12 -11 -11 -11 -11 -11 -11 -11
-14 -14 -14 -14 -14 -14 -14 -14 -14 -14 -14 -14 -13 -13 -13 -13 -13 -13 -13 -13 -13 -13 -13 -13 -13 -13 -13 -13 -13 -13 -13 -12 -12 -11 -11 -11 -11 -11
Wind_Speed
4 4 3 3 3 3 3 4 4 4 5 4 3 3 4 5 6 5 6 8 9 8 9 9 8 8 7 8 8 7 8 7 8 8 9 8 8 7
3 4 4 3 3 3 3 3 3 5 5 3 3 3 4 5 6 6 7 9 9 9 10 10 9 9 9 9 8 8 8 8 8 9 9 9 9 8
3 4 5 4 3 3 3 3 3 3 6 5 3 3 3 4 5 6 7 7 8 9 10 11 10 10 9 10 9 8 8 9 9 10 10 10 10 9
4 4 4 4 4 3 3 4 4 4 5 6 5 4 4 4 4 5 6 7 8 9 10 10 10 10 10 10 9 9 9 9 10 10 10 10 10 9
4 4 4 4 4 4 4 4 4 4 4 5 5 4 4 3 4 4 5 5 7 8 9 9 10 10 10 10 9 10 10 10 10 10 10 10 9 9
4 4 5 5 5 5 4 4 4 4 4 4 4 4 4 3 3 3 4 4 5 6 6 7 8 9 10 10 9 10 10 10 11 10 10 9 9 9
4 5 5 7 7 6 5 5 5 4 4 5 4 4 3 3 4 3 5 4 4 3 4 5 5 6 8 9 8 9 10 10 10 10 9 9 9 9
5 5 5 6 8 8 9 8 7 6 6 5 5 5 6 5 4 4 4 4 4 2 3 5 4 5 7 7 9 9 9 8 8 7 8 8 9 9
5 5 5 6 7 5 7 8 8 9 8 7 6 7 6 6 5 6 5 5 5 4 3 6 4 5 7 8 8 9 9 8 8 8 9 9 9 10
5 6 6 6 6 6 5 5 6 7 8 7 7 7 7 6 6 7 6 5 4 3 3 5 4 5 5 7 8 9 9 8 8 9 10 10 10 10
5 6 6 6 9 8 5 6 6 6 8 9 9 9 9 9 7 4 3 3 4 3 3 3 3 4 4 4 6 7 8 9 10 10 11 12 11 11
4 5 7 7 8 8 5 5 6 6 5 5 6 7 7 7 7 5 4 4 4 3 2 2 2 1 3 2 3 5 7 9 11 11 11 11 11 8
5 4 5 9 9 9 7 5 7 6 4 4 4 4 4 4 4 4 4 5 4 4 3 2 2 2 2 3 3 4 5 6 7 9 10 11 11 9
5 4 5 9 9 9 7 7 8 6 3 3 3 4 4 3 3 3 4 5 6 6 5 4 3 3 3 4 4 3 4 6 6 6 7 9 10 11
5 7 8 8 8 7 8 8 6 3 2 3 4 4 4 3 3 3 3 3 3 5 5 5 4 3 3 4 4 4 5 5 4 4 4 5 6 6
6 7 8 7 6 6 6 5 3 3 3 3 4 3 3 2 2 2 2 2 2 3 3 4 5 4 4 5 5 5 5 4 4 5 5 5 6 7
4 3 3 3 3 3 3 3 2 2 3 3 3 3 3 3 3 2 2 2 3 3 3 2 3 4 5 4 5 6 5 5 4 4 4 6 5 6
4 3 3 3 4 4 4 4 3 3 3 3 3 3 3 3 3 3 2 3 3 4 3 2 1 1 2 3 6 6 5 4 4 4 4 5 6 5
3 3 3 4 4 4 4 4 4 4 3 3 3 3 3 3 3 3 3 3 3 3 3 2 2 2 3 4 3 4 4 4 4 4 4 4 6 6
3 3 4 4 4 4 4 4 4 3 3 3 3 3 3 3 3 4 3 3 3 3 3 2 2 3 4 4 4 5 7 5 4 5 5 5 5 8
3 3 4 4 4 4 4 4 4 4 4 4 4 4 3 3 3 4 4 5 4 2 3 4 4 4 2 1 2 4 4 6 6 5 4 4 5 4
4 4 4 4 4 4 4 4 4 4 4 4 4 4 3 3 4 4 4 4 3 3 3 3 2 1 1 2 4 5 5 6 7 8 7 7 4 3
5 4 4 4 4 4 4 4 4 4 4 4 4 4 4 4 4 4 4 4 3 3 3 2 2 1 2 2 3 4 5 6 5 5 5 7 8 9
Wind_Direction
248 243 247 256 250 248 235 226 228 245 251 244 240 249 260 263 274 279 278 278 273 273 273 276 275 276 284 282 278 276 269 266 272 265 257 254 254 258
266 248 247 258 260 258 243 239 236 234 249 248 247 266 269 268 270 271 271 276 274 272 270 268 266 268 271 276 272 271 267 263 265 265 262 262 260 259
280 260 253 252 249 252 251 242 242 238 253 269 272 283 265 270 284 276 270 272 276 276 273 267 263 265 267 271 266 269 268 264 262 262 260 260 263 264
277 271 270 263 249 246 242 245 246 239 244 262 273 272 262 269 278 276 273 267 274 275 274 270 267 267 269 268 263 266 266 265 262 263 259 256 259 261
266 264 268 268 261 257 247 247 250 250 246 251 266 272 271 284 287 284 289 283 279 275 271 271 271 270 275 269 263 264 264 263 260 262 259 256 256 260
265 264 266 263 259 252 251 249 249 248 243 246 260 271 275 280 269 273 281 277 280 282 278 276 275 275 277 270 269 268 267 267 261 259 260 255 256 261
271 268 268 271 271 267 260 251 246 247 246 246 251 264 265 272 263 264 270 279 270 263 278 277 282 279 278 271 265 266 269 268 268 263 260 257 258 261
277 278 278 276 274 276 274 269 260 250 244 244 251 249 252 255 258 261 267 274 271 254 264 274 269 267 270 267 265 265 268 270 273 273 266 263 261 261
273 276 277 276 281 281 281 279 271 259 250 241 246 248 251 249 246 253 252 255 258 255 265 267 256 261 269 269 267 263 262 264 269 275 272 267 265 264
271 271 271 274 271 277 275 276 269 260 254 247 244 249 255 254 242 243 246 254 269 261 244 252 260 266 276 272 266 260 262 271 276 276 274 269 268 268
273 272 273 271 278 284 273 269 273 270 265 257 257 261 264 264 259 253 242 252 266 262 230 239 264 282 279 266 267 271 275 282 283 280 275 270 267 266
279 276 278 286 289 288 271 261 264 269 273 271 265 266 264 261 255 240 230 242 263 259 219 226 253 299 289 261 267 286 289 288 286 281 279 272 264 260
280 277 282 291 293 291 288 272 275 281 268 262 263 266 264 257 255 252 241 233 242 253 238 219 236 249 252 281 286 279 277 284 285 279 276 274 266 261
276 277 279 288 290 292 290 289 288 289 274 269 270 273 271 265 266 269 256 249 243 247 238 223 223 233 249 278 282 288 288 283 279 277 270 274 271 267
278 281 285 288 290 288 290 293 291 287 279 273 269 270 271 274 279 281 278 272 273 260 241 235 231 235 236 254 269 279 293 289 270 272 272 268 268 265
290 288 290 289 289 290 292 291 287 278 274 268 270 278 285 285 279 276 270 261 263 272 269 248 237 230 248 255 255 267 269 268 280 288 287 280 273 265
296 296 295 303 294 296 296 294 292 287 277 279 278 282 285 285 280 272 264 261 246 251 264 271 268 260 253 253 253 256 262 269 271 285 289 285 276 268
291 286 284 281 279 283 286 286 283 274 272 273 273 274 277 278 284 283 265 245 252 259 254 249 264 316 312 277 243 245 248 263 276 283 280 279 283 280
281 273 275 278 278 278 277 277 279 283 281 271 267 268 267 269 268 270 270 264 259 260 262 248 221 207 262 289 283 252 256 276 284 285 280 272 277 282
287 276 278 280 279 279 279 279 279 283 281 276 269 266 266 264 264 262 261 260 265 271 276 264 227 220 230 253 272 287 279 267 270 280 286 284 283 287
297 286 281 282 280 279 279 279 279 275 272 272 270 265 263 263 263 262 263 267 265 264 268 275 269 274 254 241 282 291 295 290 284 276 277 287 295 294
297 293 291 287 284 283 283 280 278 278 276 269 270 268 263 258 258 261 262 262 259 260 270 284 298 295 218 237 268 286 301 314 317 311 293 270 261 259
291 289 287 287 284 283 281 278 275 274 274 275 273 272 268 263 260 257 257 258 258 262 272 288 303 292 262 252 270 287 296 307 317 326 318 307 292 282
Height
1501 1501 1502 1503 1504 1504 1505 1506 1506 1504 1502 1502 1504 1505 1506 1506 1506 1506 1506 1507 1507 1507 1507 1507 1508 1508 1508 1509 1509 1510 1511 1512 1513 1514 1515 1516 1517 1517
1496 1496 1497 1498 1498 1499 1499 1500 1500 1500 1498 1497 1498 1499 1500 1500 1500 1500 1501 1501 1501 1501 1501 1501 1502 1502 1503 1503 1503 1504 1505 1506 1507 1508 1509 1510 1511 1511
1492 1492 1491 1492 1493 1493 1494 1494 1495 1495 1493 1492 1493 1493 1494 1494 1494 1495 1495 1495 1494 1495 1495 1495 1496 1496 1497 1497 1497 1498 1498 1500 1501 1502 1503 1504 1505 1505
1486 1486 1486 1487 1487 1487 1488 1488 1488 1488 1488 1486 1486 1487 1488 1488 1488 1488 1488 1489 1489 1489 1489 1489 1490 1490 1491 1491 1491 1492 1493 1494 1495 1496 1497 1498 1498 1499
1481 1481 1481 1481 1481 1481 1482 1482 1482 1483 1482 1482 1481 1481 1481 1482 1482 1482 1482 1482 1482 1483 1483 1483 1483 1484 1484 1485 1484 1486 1487 1488 1489 1489 1491 1491 1491 1492
1475 1476 1476 1475 1475 1476 1476 1476 1476 1477 1477 1476 1476 1475 1475 1475 1476 1475 1475 1475 1475 1476 1476 1477 1477 1477 1477 1478 1478 1479 1480 1481 1482 1482 1483 1484 1484 1485
1470 1470 1470 1470 1470 1470 1470 1470 1470 1470 1470 1470 1469 1469 1469 1469 1469 1469 1469 1468 1469 1469 1469 1470 1470 1470 1470 1471 1471 1472 1473 1474 1475 1475 1476 1477 1477 1478
1464 1464 1464 1464 1464 1464 1465 1465 1465 1464 1464 1464 1463 1463 1463 1463 1464 1463 1463 1462 1461 1463 1463 1463 1464 1463 1463 1464 1464 1465 1466 1467 1468 1468 1469 1469 1470 1471
1459 1458 1458 1458 1459 1458 1458 1458 1458 1458 1459 1458 1457 1456 1457 1457 1458 1457 1457 1456 1456 1456 1457 1455 1457 1456 1457 1456 1458 1459 1460 1460 1461 1461 1462 1462 1463 1464
1454 1453 1453 1453 1453 1452 1452 1451 1451 1451 1452 1452 1451 1451 1451 1452 1452 1452 1451 1451 1451 1451 1452 1450 1449 1450 1449 1450 1451 1452 1453 1454 1454 1454 1455 1455 1456 1457
1448 1448 1448 1448 1447 1447 1446 1445 1444 1445 1446 1446 1446 1446 1446 1446 1446 1446 1445 1445 1444 1444 1445 1445 1443 1443 1442 1443 1445 1446 1447 1447 1447 1447 1448 1448 1449 1449
1443 1443 1443 1442 1442 1441 1441 1440 1439 1438 1439 1439 1439 1439 1440 1439 1440 1440 1439 1439 1438 1438 1438 1439 1438 1438 1436 1436 1438 1439 1440 1440 1440 1440 1440 1441 1441 1442
1437 1437 1437 1437 1436 1436 1435 1434 1434 1433 1433 1433 1433 1433 1433 1433 1433 1433 1434 1434 1434 1433 1433 1434 1433 1433 1433 1431 1431 1433 1433 1433 1433 1433 1434 1434 1434 1435
1432 1432 1432 1431 1431 1430 1429 1428 1428 1428 1428 1427 1426 1426 1426 1427 1427 1428 1428 1428 1428 1429 1428 1428 1428 1428 1427 1426 1425 1425 1427 1427 1427 1427 1427 1427 1428 1428
1428 1427 1427 1426 1425 1424 1424 1423 1423 1422 1422 1421 1421 1421 1421 1421 1422 1422 1422 1422 1423 1423 1423 1423 1423 1423 1423 1422 1421 1420 1420 1420 1420 1421 1421 1421 1420 1420
1424 1423 1422 1421 1420 1419 1419 1418 1417 1417 1417 1417 1416 1416 1416 1416 1416 1416 1416 1416 1416 1417 1418 1418 1418 1418 1417 1417 1416 1415 1416 1415 1414 1414 1414 1414 1414 1414
1419 1418 1416 1415 1414 1414 1413 1413 1413 1412 1412 1412 1411 1411 1411 1411 1411 1411 1411 1411 1411 1410 1410 1412 1412 1412 1412 1412 1411 1410 1410 1410 1410 1409 1408 1407 1408 1408
1415 1413 1412 1411 1410 1409 1409 1408 1408 1408 1408 1407 1407 1406 1406 1406 1406 1406 1406 1406 1406 1406 1406 1406 1406 1406 1406 1406 1407 1405 1405 1404 1404 1403 1403 1401 1400 1402
1411 1409 1408 1407 1406 1406 1405 1405 1404 1404 1404 1403 1403 1403 1402 1402 1402 1402 1402 1401 1401 1401 1402 1402 1401 1401 1400 1399 1400 1401 1400 1399 1398 1398 1397 1396 1395 1395
1406 1405 1404 1404 1403 1402 1402 1401 1400 1400 1399 1399 1398 1398 1398 1398 1398 1397 1397 1397 1397 1397 1397 1397 1397 1397 1397 1396 1395 1395 1396 1394 1393 1392 1392 1391 1390 1390
1402 1401 1400 1400 1399 1398 1398 1397 1396 1396 1395 1395 1394 1393 1393 1393 1393 1393 1393 1393 1392 1392 1392 1392 1393 1393 1392 1392 1391 1389 1390 1391 1390 1388 1387 1386 1384 1383
1398 1397 1396 1396 1395 1394 1394 1393 1392 1392 1391 1391 1390 1390 1390 1390 1389 1389 1389 1389 1388 1388 1388 1388 1388 1388 1388 1387 1386 1385 1385 1385 1385 1385 1384 1383 1381 1378
1394 1393 1392 1392 1391 1390 1389 1388 1388 1387 1387 1387 1386 1386 1385 1385 1385 1385 1385 1385 1385 1385 1385 1384 1384 1384 1384 1383 1382 1381 1381 1380 1379 1378 1379 1379 1378 1376